• In Deutschland
  • Länderverzeichnis
  • Für 7 Tage
  • Wassertemperatur
  • Satellitenkarten
  • Wetterkarte
  • Widgets
  • user-avatar
    Anmelden

    Stündliche Wetter Accra

    Heute, 15 Dezember, Freitag

    Zeit Temperatur Niederschläge Wind Luftdruck Luftfeuchtigkeit
    00:00 +29°C° 0 mm 3 m/S 758 mmHg 76%
    01:00 +28°C° 0 mm 3 m/S 758 mmHg 78%
    02:00 +28°C° 0 mm 3 m/S 757 mmHg 80%
    03:00 +28°C° 0 mm 3 m/S 757 mmHg 81%
    04:00 +27°C° 0 mm 3 m/S 757 mmHg 83%
    05:00 +27°C° 0 mm 3 m/S 757 mmHg 85%
    06:00 +27°C° 0 mm 3 m/S 757 mmHg 86%
    07:00 +28°C° 0 mm 3 m/S 758 mmHg 79%
    08:00 +30°C° 0 mm 3 m/S 758 mmHg 71%
    09:00 +33°C° 0 mm 4 m/S 758 mmHg 64%
    10:00 +34°C° 0 mm 4 m/S 758 mmHg 56%
    11:00 +36°C° 0 mm 4 m/S 757 mmHg 49%
    12:00 +38°C° 0 mm 4 m/S 757 mmHg 41%
    13:00 +39°C° 0 mm 5 m/S 756 mmHg 42%
    14:00 +39°C° 0 mm 5 m/S 756 mmHg 43%
    15:00 +38°C° 0 mm 6 m/S 755 mmHg 44%
    16:00 +36°C° 0 mm 6 m/S 755 mmHg 52%
    17:00 +34°C° 0 mm 6 m/S 756 mmHg 60%
    18:00 +32°C° 0 mm 6 m/S 756 mmHg 69%
    19:00 +30°C° 0 mm 6 m/S 756 mmHg 71%
    20:00 +30°C° 0 mm 5 m/S 757 mmHg 73%
    21:00 +29°C° 0 mm 5 m/S 758 mmHg 75%
    22:00 +29°C° 0 mm 5 m/S 757 mmHg 77%
    23:00 +29°C° 0 mm 5 m/S 757 mmHg 80%

    Morgen, 16 Dezember, Samstag

    Zeit Temperatur Niederschläge Wind Luftdruck Luftfeuchtigkeit
    00:00 +28°C° 0 mm 4 m/S 757 mmHg 82%
    01:00 +28°C° 0 mm 4 m/S 757 mmHg 83%
    02:00 +28°C° 0 mm 5 m/S 756 mmHg 84%
    03:00 +27°C° 0 mm 5 m/S 756 mmHg 85%
    04:00 +27°C° 0 mm 4 m/S 756 mmHg 86%
    05:00 +27°C° 0 mm 4 m/S 756 mmHg 87%
    06:00 +27°C° 0 mm 4 m/S 757 mmHg 89%
    07:00 +28°C° 0 mm 4 m/S 757 mmHg 80%
    08:00 +30°C° 0 mm 4 m/S 758 mmHg 70%
    09:00 +33°C° 0 mm 4 m/S 758 mmHg 61%
    10:00 +34°C° 0 mm 4 m/S 758 mmHg 55%
    11:00 +36°C° 0 mm 4 m/S 758 mmHg 49%
    12:00 +37°C° 0 mm 4 m/S 757 mmHg 43%
    13:00 +39°C° 0 mm 5 m/S 757 mmHg 42%
    14:00 +39°C° 0 mm 5 m/S 756 mmHg 42%
    15:00 +39°C° 0 mm 6 m/S 755 mmHg 41%
    16:00 +36°C° 0 mm 6 m/S 756 mmHg 49%
    17:00 +35°C° 0 mm 6 m/S 756 mmHg 57%
    18:00 +33°C° 0 mm 6 m/S 756 mmHg 65%
    19:00 +32°C° 0 mm 6 m/S 756 mmHg 68%
    20:00 +32°C° 0 mm 6 m/S 757 mmHg 71%
    21:00 +30°C° 0 mm 6 m/S 758 mmHg 75%
    22:00 +29°C° 0 mm 6 m/S 758 mmHg 77%
    23:00 +29°C° 0 mm 6 m/S 758 mmHg 79%

    übermorgen, 17 Dezember, Sonntag

    Zeit Temperatur Niederschläge Wind Luftdruck Luftfeuchtigkeit
    00:00 +29°C° 0 mm 6 m/S 757 mmHg 81%
    01:00 +28°C° 0 mm 6 m/S 757 mmHg 81%
    02:00 +28°C° 0 mm 6 m/S 756 mmHg 82%
    03:00 +28°C° 0 mm 6 m/S 756 mmHg 83%
    04:00 +28°C° 0 mm 6 m/S 756 mmHg 84%
    05:00 +27°C° 0 mm 6 m/S 756 mmHg 85%
    06:00 +27°C° 0 mm 6 m/S 756 mmHg 86%
    07:00 +29°C° 0 mm 5 m/S 757 mmHg 79%
    08:00 +30°C° 0 mm 5 m/S 757 mmHg 71%
    09:00 +33°C° 0 mm 5 m/S 758 mmHg 64%
    10:00 +35°C° 0 mm 5 m/S 758 mmHg 58%
    11:00 +36°C° 0 mm 5 m/S 757 mmHg 51%
    12:00 +39°C° 0 mm 5 m/S 757 mmHg 45%
    13:00 +39°C° 0 mm 5 m/S 756 mmHg 44%
    14:00 +39°C° 0 mm 6 m/S 756 mmHg 43%
    15:00 +39°C° 0 mm 6 m/S 755 mmHg 42%
    16:00 +36°C° 0 mm 6 m/S 755 mmHg 51%
    17:00 +34°C° 0 mm 6 m/S 755 mmHg 60%
    18:00 +33°C° 0 mm 7 m/S 756 mmHg 69%
    19:00 +32°C° 0 mm 6 m/S 756 mmHg 72%
    20:00 +32°C° 0 mm 6 m/S 757 mmHg 74%
    21:00 +30°C° 0 mm 6 m/S 758 mmHg 77%
    22:00 +30°C° 0 mm 6 m/S 758 mmHg 78%
    23:00 +29°C° 0 mm 6 m/S 757 mmHg 80%

    18 Dezember, Montag

    Zeit Temperatur Niederschläge Wind Luftdruck Luftfeuchtigkeit
    00:00 +29°C° 0 mm 6 m/S 757 mmHg 81%
    01:00 +29°C° 0 mm 6 m/S 757 mmHg 82%
    02:00 +28°C° 0 mm 5 m/S 756 mmHg 83%
    03:00 +28°C° 0 mm 5 m/S 756 mmHg 84%
    04:00 +28°C° 0 mm 5 m/S 756 mmHg 86%
    05:00 +28°C° 0 mm 5 m/S 756 mmHg 87%
    06:00 +28°C° 0 mm 5 m/S 757 mmHg 88%
    07:00 +29°C° 0 mm 5 m/S 757 mmHg 81%
    08:00 +30°C° 0 mm 5 m/S 757 mmHg 74%
    09:00 +33°C° 0 mm 6 m/S 758 mmHg 67%
    10:00 +34°C° 0 mm 6 m/S 757 mmHg 64%
    11:00 +34°C° 0 mm 5 m/S 757 mmHg 62%
    12:00 +35°C° 0 mm 5 m/S 757 mmHg 59%
    13:00 +35°C° 0,1 mm 6 m/S 756 mmHg 58%
    14:00 +36°C° 0,1 mm 6 m/S 755 mmHg 56%
    15:00 +36°C° 0,1 mm 6 m/S 755 mmHg 55%
    16:00 +35°C° 0,1 mm 6 m/S 755 mmHg 60%
    17:00 +33°C° 0,1 mm 6 m/S 755 mmHg 65%
    18:00 +32°C° 0,1 mm 6 m/S 755 mmHg 70%
    19:00 +30°C° 0 mm 6 m/S 756 mmHg 73%
    20:00 +30°C° 0 mm 6 m/S 757 mmHg 75%
    21:00 +29°C° 0 mm 6 m/S 757 mmHg 77%
    22:00 +29°C° 0 mm 6 m/S 757 mmHg 79%
    23:00 +29°C° 0 mm 6 m/S 757 mmHg 80%

    19 Dezember, Dienstag

    Zeit Temperatur Niederschläge Wind Luftdruck Luftfeuchtigkeit
    00:00 +28°C° 0 mm 6 m/S 757 mmHg 81%
    01:00 +28°C° 0 mm 6 m/S 757 mmHg 82%
    02:00 +28°C° 0 mm 6 m/S 756 mmHg 84%
    03:00 +27°C° 0 mm 5 m/S 756 mmHg 85%
    04:00 +27°C° 0 mm 5 m/S 756 mmHg 86%
    05:00 +27°C° 0 mm 5 m/S 756 mmHg 87%
    06:00 +27°C° 0 mm 5 m/S 757 mmHg 88%
    07:00 +28°C° 0 mm 5 m/S 757 mmHg 81%
    08:00 +30°C° 0 mm 5 m/S 758 mmHg 75%
    09:00 +32°C° 0 mm 6 m/S 758 mmHg 68%
    10:00 +33°C° 0 mm 5 m/S 758 mmHg 64%
    11:00 +34°C° 0 mm 5 m/S 757 mmHg 60%
    12:00 +35°C° 0 mm 5 m/S 757 mmHg 56%
    13:00 +35°C° 0,3 mm 5 m/S 756 mmHg 56%
    14:00 +35°C° 0,3 mm 6 m/S 755 mmHg 56%
    15:00 +35°C° 0,3 mm 6 m/S 755 mmHg 56%
    16:00 +34°C° 0,5 mm 6 m/S 755 mmHg 62%
    17:00 +32°C° 0,5 mm 6 m/S 756 mmHg 68%
    18:00 +30°C° 0,5 mm 6 m/S 756 mmHg 75%
    19:00 +29°C° 0,8 mm 5 m/S 756 mmHg 77%
    20:00 +29°C° 0,8 mm 5 m/S 757 mmHg 79%
    21:00 +29°C° 0,8 mm 5 m/S 757 mmHg 82%
    22:00 +28°C° 0,3 mm 5 m/S 757 mmHg 83%
    23:00 +28°C° 0,3 mm 5 m/S 757 mmHg 84%

    20 Dezember, Mittwoch

    Zeit Temperatur Niederschläge Wind Luftdruck Luftfeuchtigkeit
    00:00 +27°C° 0,3 mm 5 m/S 757 mmHg 86%
    01:00 +27°C° 0,6 mm 5 m/S 756 mmHg 87%
    02:00 +27°C° 0,6 mm 5 m/S 756 mmHg 88%
    03:00 +27°C° 0,6 mm 5 m/S 755 mmHg 89%
    04:00 +27°C° 0 mm 5 m/S 756 mmHg 89%
    05:00 +26°C° 0 mm 5 m/S 756 mmHg 89%
    06:00 +26°C° 0 mm 4 m/S 756 mmHg 90%
    07:00 +28°C° 0 mm 4 m/S 757 mmHg 83%
    08:00 +29°C° 0 mm 4 m/S 757 mmHg 76%
    09:00 +32°C° 0 mm 4 m/S 757 mmHg 69%
    10:00 +33°C° 0 mm 4 m/S 757 mmHg 63%
    11:00 +34°C° 0 mm 4 m/S 757 mmHg 58%
    12:00 +36°C° 0 mm 4 m/S 756 mmHg 52%
    13:00 +35°C° 0,3 mm 5 m/S 756 mmHg 55%
    14:00 +35°C° 0,3 mm 5 m/S 755 mmHg 58%
    15:00 +34°C° 0,3 mm 6 m/S 755 mmHg 60%
    16:00 +33°C° 0,2 mm 5 m/S 755 mmHg 64%
    17:00 +33°C° 0,2 mm 5 m/S 755 mmHg 68%
    18:00 +32°C° 0,2 mm 5 m/S 756 mmHg 72%
    19:00 +30°C° 0,6 mm 5 m/S 756 mmHg 76%
    20:00 +29°C° 0,6 mm 5 m/S 757 mmHg 80%
    21:00 +28°C° 0,6 mm 5 m/S 757 mmHg 84%
    22:00 +28°C° 0,4 mm 5 m/S 757 mmHg 85%
    23:00 +28°C° 0,4 mm 5 m/S 757 mmHg 86%
    Mehr zeigen